This is the latest recevied weather packets stored in our database for station/object N0KWA. If no packets are shown the sender has not sent any weather packets the latest 10 day(s).
| Time | Temp. | Humidity | Pressure | Rain* | Wind** | Luminosity | Snow |
|---|---|---|---|---|---|---|---|
| 1788105449 | 29.44° C | 85% | 1020 hPa | 0 mm | - | 26 W/m² | - |
| 1788105144 | 29.44° C | 87% | 1019.8 hPa | 0 mm | - | 43 W/m² | - |
| 1788104839 | 29.44° C | 88% | 1020 hPa | 0 mm | - | 24 W/m² | - |
| 1788104534 | 29.44° C | 88% | 1019.7 hPa | 0 mm | - | 23 W/m² | - |
| 1788104231 | 29.44° C | 87% | 1019.8 hPa | 0 mm | - | 28 W/m² | - |
| 1788103926 | 28.89° C | 88% | 1019.7 hPa | 0 mm | - | 29 W/m² | - |
| 1788103625 | 28.89° C | 88% | 1019.8 hPa | 0 mm | - | 29 W/m² | - |
| 1788103324 | 28.89° C | 89% | 1020 hPa | 0 mm | - | 29 W/m² | - |
| 1788103020 | 28.89° C | 89% | 1019.9 hPa | 0 mm | - | 20 W/m² | - |
| 1788102718 | 28.89° C | 90% | 1019.7 hPa | 0 mm | - | 24 W/m² | - |
| 1788102408 | 28.89° C | 90% | 1020 hPa | 0 mm | - | 28 W/m² | - |
| 1788102103 | 28.89° C | 90% | 1019.6 hPa | 0 mm | - | 13 W/m² | - |
| 1788101802 | 28.33° C | 90% | 1019.7 hPa | 0 mm | - | 29 W/m² | - |
| 1788101498 | 28.33° C | 91% | 1019.7 hPa | 0 mm | - | 19 W/m² | - |
| 1788101193 | 28.33° C | 91% | 1019.8 hPa | 0 mm | - | 92 W/m² | - |
| 1788100894 | 27.78° C | 93% | 1019.6 hPa | 0 mm | - | 20 W/m² | - |
| 1788100585 | 27.78° C | 93% | 1019.9 hPa | 0 mm | - | 16 W/m² | - |
| 1788100282 | 27.78° C | 93% | 1019.5 hPa | 0 mm | - | 14 W/m² | - |
| 1788099978 | 27.22° C | 94% | 1019.5 hPa | 0 mm | - | 12 W/m² | - |
| 1788099673 | 27.22° C | 95% | 1019.7 hPa | 0 mm | - | 11 W/m² | - |
| 1788099368 | 27.22° C | 97% | 1019.7 hPa | 0 mm | - | 11 W/m² | - |
| 1788099063 | 26.67° C | 97% | 1019.7 hPa | 0 mm | - | 10 W/m² | - |
| 1788098773 | 26.67° C | 97% | 1019.7 hPa | 0 mm | - | 11 W/m² | - |
| 1788098453 | 26.67° C | 98% | 1019.8 hPa | 0 mm | - | 10 W/m² | - |
| 1788098148 | 26.67° C | 98% | 1019.7 hPa | 0 mm | - | 11 W/m² | - |
* Rain latest hour (hover to see other rain measurements)
** Current wind speed in m/s (hover to see current wind gust speed)